SKYSAT-C9

Last updated on Sat Apr 13 2024 01:02:25 GMT+0100 (British Summer Time)

1 42989U 17068C 24103.30758850 .00015078 00000+0 48103-3 0 9999 2 42989 97.3502 228.1942 0024727 189.4551 170.6229 15.32297715360696
UTC large
Height (km)
Speed (km/s)
/
Latitude / Longitude
Inclination (degrees)
Orbital Period (minutes)
Azimuth
Elevation
Range (km)
Doppler Factor

Next 0 passes for location: London (51.5072 / 0.1276)

Sorry there are no passes over London.